Weather in Severnyj

Russia / Komi Republic     67°36′08″N   64°06′51″E
temp.,
°C
wind,
m/s
gust,
m/s
humid.,
%
clouds,
%
prec.,
mm/h
press.,
hPa
HPBL,
m
8 march, mon
mon800:00−29ene129993 0.1 101020
03:00−29ne239896 0.1 101077
06:00−30ne239897 0.1 100972
09:00−30nne339797 0.1 1009169
12:00−30nne349590 0.1 1009244
15:00−31n349792 0.1 1009117
18:00−33n339795 0.0 100942
21:00−34n239895 0.1 100920
9 march, tue
tue900:00−36nnw2210098 0.0 100919
03:00−37nw1110099 0.0 100919
06:00−38w11100100 0.0 100919
09:00−35sw2298100 0.0 101067
12:00−34ssw2398100 0.0 1011138
15:00−35ssw3399100 0.0 101234
18:00−35ssw3499100 0.1 101282
21:00−35s3699100 0.1 1012122
10 march, wed
wed1000:00−33s4698100 0.1 1011188
03:00−32s4798100 0.2 1010206
06:00−30s4798100 0.1 1009242
09:00−29ssw4696100 0.1 1009320
12:00−28ssw3596100 0.0 1009332
15:00−30ssw239985 0.0 100919
18:00−33s3310047 0.0 100919
21:00−33s3410068 0.0 100938
11 march, thu
thu1100:00−32s44100100 0.0 100878
03:00−31s47100100 0.0 1007116
06:00−28s5899100 0.0 1005229
09:00−24s6997100 0.1 1003286
12:00−20s6996100 0.1 1001392
15:00−17s51095100 0.1 999384
18:00−17s5996100 0.2 998203
21:00−14ssw3597100 0.5 998122
12 march, fri
fri1200:00−12wsw61095100 0.7 998369
03:00−14sw71095100 1.6 999412
06:00−15sw71294100 0.7 1000477
09:00−16sw81494100 0.9 1001452
12:00−14sw91592100 0.2 1001650
15:00−12wsw91591100 0.3 1001829
18:00−13wsw81692100 0.2 1001748
21:00−12wsw91791100 0.4 1000730